This is the latest recevied weather packets stored in our database for station/object WD9U. If no packets are shown the sender has not sent any weather packets the latest 10 day(s).
| Time | Temp. | Humidity | Pressure | Rain* | Wind** | Luminosity | Snow |
|---|---|---|---|---|---|---|---|
| 1778016676 | 6.67° C | 42% | 1010.8 hPa | 0 mm | - | 384 W/m² | - |
| 1778016316 | 6.67° C | 42% | 1010.7 hPa | 0 mm | - | 312 W/m² | - |
| 1778015956 | 6.67° C | 43% | 1010.6 hPa | 0 mm | - | 331 W/m² | - |
| 1778015596 | 6.67° C | 43% | 1010.6 hPa | 0 mm | - | 320 W/m² | - |
| 1778015235 | 6.11° C | 43% | 1010.7 hPa | 0 mm | - | 340 W/m² | - |
| 1778015119 | 6.11° C | 42% | 1010.6 hPa | 0 mm | - | 374 W/m² | - |
| 1778014875 | 6.11° C | 42% | 1010.6 hPa | 0 mm | - | 268 W/m² | - |
| 1778014515 | 6.67° C | 43% | 1010.6 hPa | 0 mm | - | 279 W/m² | - |
| 1778014155 | 6.11° C | 44% | 1010.5 hPa | 0 mm | - | 332 W/m² | - |
| 1778013918 | 6.11° C | 43% | 1010.6 hPa | 0 mm | - | 318 W/m² | - |
| 1778013795 | 6.11° C | 43% | 1010.6 hPa | 0 mm | - | 332 W/m² | - |
| 1778013435 | 6.11° C | 43% | 1010.6 hPa | 0 mm | - | 267 W/m² | - |
| 1778013075 | 6.11° C | 43% | 1010.6 hPa | 0 mm | - | 282 W/m² | - |
| 1778012713 | 6.11° C | 43% | 1010.5 hPa | 0 mm | - | 305 W/m² | - |
| 1778012353 | 6.11° C | 43% | 1010.6 hPa | 0 mm | - | 216 W/m² | - |
| 1778011993 | 6.11° C | 43% | 1010.7 hPa | 0 mm | - | 316 W/m² | - |
| 1778011633 | 6.11° C | 46% | 1010.6 hPa | 0 mm | - | 344 W/m² | - |
| 1778011516 | 6.11° C | 45% | 1010.7 hPa | 0 mm | - | 332 W/m² | - |
| 1778011273 | 5.56° C | 43% | 1010.7 hPa | 0 mm | - | 334 W/m² | - |
| 1778010913 | 6.11° C | 43% | 1010.5 hPa | 0 mm | - | 280 W/m² | - |
| 1778010553 | 6.11° C | 44% | 1010.4 hPa | 0 mm | - | 347 W/m² | - |
| 1778010316 | 6.11° C | 44% | 1010.6 hPa | 0 mm | - | 371 W/m² | - |
| 1778010193 | 6.11° C | 43% | 1010.4 hPa | 0 mm | - | 377 W/m² | - |
| 1778009833 | 6.11° C | 44% | 1010.4 hPa | 0 mm | - | 406 W/m² | - |
| 1778009473 | 5.56° C | 42% | 1010.4 hPa | 0 mm | - | 396 W/m² | - |
* Rain latest hour (hover to see other rain measurements)
** Current wind speed in m/s (hover to see current wind gust speed)